Terminal Aerodrome Forecast
Issued by NWS Dodge City, KS

Home | Current Version | Previous Version | Graphics & Text | Print | Product List | Glossary Off
Versions: 1 2 3 4 5 6 7 8 9 10 11 12 13 14 15 16 17 18 19 20 21 22 23 24 25 26 27 28 29 30 31 32 33 34 35 36 37 38 39 40 41 42 43 44 45 46 47

000
FTUS43 KDDC 222320
TAFDDC
TAF
KDDC 222320Z 2300/2324 VRB06KT P6SM SCT100
     FM230200 03015G25KT P6SM VCTS BKN100CB
     FM230600 02010KT P6SM SKC
     FM231500 05010G20KT P6SM SKC
     FM231800 06010KT P6SM SCT080=

USA.gov is the U.S. government's official web portal to all federal, state and local government web resources and services.